Theta_e
360 362 362 359 358 359 360 359 357 356 354 353 353 352 351 352 352 351 352 354 355 356 356 357 358 359 358 357 356 357 359 360 361 362 363 363 362 360 359 360 361 362 362 362 358 358 359 359 358 357 357 357 356 355 355 355 355 353 353 352 351 354 355 355 359 362 359 358 357 352 351 351 349 351 354 356 356 356 356 353 351 353 356 356 355
357 359 361 360 358 359 359 359 357 355 355 353 352 352 351 352 351 350 351 351 353 355 357 356 356 357 357 355 354 354 355 357 358 359 360 361 362 362 359 358 361 362 362 361 357 357 361 360 359 359 359 358 357 357 356 354 354 354 353 353 353 353 355 356 358 359 360 358 357 356 355 355 353 352 355 357 356 356 356 354 354 357 357 354 353
355 356 359 359 358 359 360 360 359 355 353 352 351 352 352 351 351 350 350 350 351 354 356 356 355 355 356 355 353 353 353 355 356 356 358 360 360 360 358 356 359 362 362 361 359 359 360 361 361 360 358 359 358 358 356 353 352 353 352 351 353 352 352 353 355 358 360 359 359 357 356 354 354 355 357 358 358 357 357 357 356 357 355 354 354
357 355 357 357 357 357 360 361 359 356 352 351 351 351 351 352 351 350 349 349 349 352 354 355 355 355 355 355 354 352 353 354 355 356 357 357 359 359 357 356 358 361 361 361 361 360 359 360 361 360 358 357 357 357 356 354 352 351 351 351 352 351 352 352 353 355 359 360 360 359 358 357 356 356 357 358 358 358 358 358 356 354 353 354 354
357 354 354 356 355 356 357 358 358 357 353 349 349 349 349 351 352 352 349 348 349 350 351 353 354 353 354 355 354 353 353 354 356 357 357 355 356 358 358 357 356 358 359 358 359 358 357 358 359 358 358 356 356 357 356 356 354 352 351 351 351 352 352 351 353 354 356 359 361 361 361 362 360 359 360 360 361 362 360 358 356 354 352 351 350
354 353 353 355 355 355 354 355 355 355 354 350 346 347 348 348 351 353 351 348 349 349 350 351 352 353 354 354 355 354 353 355 355 357 357 356 356 357 358 357 357 356 357 357 356 356 356 356 356 357 357 355 355 355 356 356 355 354 352 351 352 352 352 353 353 355 357 359 361 362 363 361 361 359 359 361 362 363 362 361 359 357 356 353 354
353 352 352 353 355 355 353 353 354 353 353 352 346 345 345 346 349 351 351 349 348 348 349 349 350 352 353 355 355 355 354 355 356 357 357 356 355 355 355 356 355 354 355 354 354 354 354 356 356 356 355 355 354 354 355 354 354 354 353 353 352 353 354 354 355 356 359 360 362 363 362 361 361 361 361 361 362 361 362 363 360 361 362 361 357
354 355 355 353 354 355 354 353 354 353 352 351 348 345 344 344 345 348 350 350 348 346 347 349 350 351 353 355 356 356 355 355 356 356 356 356 355 354 353 354 353 352 352 351 351 352 352 353 354 353 353 354 354 354 354 353 353 353 353 353 353 353 354 355 356 357 359 361 361 362 362 363 363 362 361 358 356 356 358 359 360 362 364 359 356
354 354 355 354 353 353 353 354 354 353 354 353 350 347 345 344 344 344 347 348 348 347 345 347 349 351 351 353 356 357 356 356 357 356 356 356 356 354 352 352 352 350 350 350 350 349 348 348 349 350 350 351 351 353 352 352 354 354 354 354 353 353 355 356 357 358 359 360 360 361 362 362 361 360 359 358 356 356 358 360 362 362 359 357 357
355 352 351 351 352 352 353 353 354 354 353 353 354 352 347 345 343 343 345 346 346 347 345 345 347 350 351 353 355 357 356 356 357 356 355 356 355 355 352 350 351 350 350 349 348 349 347 346 346 345 347 348 349 350 350 350 351 352 353 355 355 355 355 357 359 360 361 362 360 360 361 361 359 358 358 358 358 358 358 358 359 358 357 359 359
356 353 352 353 353 354 354 353 353 354 354 353 353 354 354 351 347 344 343 344 345 346 346 344 344 346 350 352 354 355 355 354 356 356 355 354 354 355 353 350 350 350 349 349 349 348 347 346 345 344 344 344 346 347 348 350 349 349 349 351 353 356 358 359 361 361 361 362 362 360 360 359 359 357 356 356 355 354 353 352 352 353 353 356 358
354 354 356 355 353 353 354 354 354 354 354 355 355 355 356 357 355 352 347 344 343 344 345 346 343 344 346 348 351 354 354 353 353 354 355 354 354 355 354 352 350 349 350 349 349 348 347 346 344 344 342 341 343 343 345 347 347 346 345 344 346 348 351 356 360 362 363 364 363 361 361 359 358 358 355 354 353 352 352 350 347 346 347 350 354
350 350 353 354 353 353 353 354 354 355 354 354 355 356 357 357 359 359 356 349 345 345 346 346 345 343 344 345 347 350 353 353 352 351 352 353 352 353 353 352 350 348 348 349 348 348 348 348 347 344 342 340 341 341 342 342 343 343 343 343 343 343 344 344 348 353 358 361 363 363 362 361 360 359 357 355 353 352 352 350 348 348 350 351 353
346 346 348 350 350 351 352 353 354 355 355 355 357 358 359 358 359 361 360 355 350 348 347 347 347 346 345 344 344 346 349 352 351 350 350 350 350 350 350 351 350 347 345 345 346 347 347 347 347 347 345 344 342 342 343 345 345 343 343 344 345 346 347 346 344 342 342 348 355 357 355 355 357 357 355 356 355 355 354 353 352 352 353 353 352
343 343 345 346 345 345 347 349 351 353 354 355 356 356 356 357 357 356 355 355 354 354 353 351 350 350 350 348 345 345 345 345 349 350 349 348 347 348 347 348 348 347 344 343 343 345 346 347 349 349 349 347 345 345 345 347 349 350 349 349 350 352 352 351 348 342 335 334 339 341 341 342 346 347 349 352 353 353 353 353 353 354 356 356 356
340 341 342 342 342 342 342 345 347 350 352 353 353 352 351 353 355 355 354 354 353 351 353 354 355 354 354 353 351 350 346 343 344 345 348 348 346 346 347 347 347 345 343 341 341 341 343 345 348 350 350 350 351 350 349 348 349 351 354 356 358 360 359 356 353 348 343 337 334 333 333 334 337 339 341 345 348 350 352 355 356 357 358 360 360
339 339 339 340 341 341 341 343 345 347 349 351 352 352 351 352 354 356 356 356 356 352 351 353 355 357 356 356 356 355 354 350 347 345 345 347 346 346 346 347 348 347 344 342 340 340 340 341 342 345 347 349 350 352 352 352 350 348 350 353 356 360 362 361 359 356 353 350 345 343 342 340 341 341 340 341 344 347 351 356 359 360 361 363 362
338 339 339 339 339 339 341 343 344 345 347 348 351 352 352 352 354 355 355 355 355 354 353 352 353 355 357 358 358 358 357 356 354 350 348 346 346 346 347 348 349 350 348 346 343 342 340 341 340 341 342 342 344 346 350 352 353 352 350 348 350 353 354 356 356 354 352 352 351 351 352 351 350 348 346 345 345 346 349 352 355 357 359 360 359
336 337 338 338 338 339 340 342 344 344 344 345 348 351 352 352 353 354 355 355 354 354 354 353 352 353 355 357 358 358 359 359 358 356 354 351 349 346 346 349 351 351 351 351 349 347 346 346 345 344 343 342 342 342 345 348 350 351 350 350 350 349 348 349 350 350 348 350 352 354 355 355 354 354 353 351 350 349 350 350 351 354 356 356 355
335 335 337 338 338 338 338 340 342 343 343 345 347 350 351 351 352 353 355 354 354 353 354 354 353 353 353 355 356 357 357 358 359 358 357 356 353 349 347 349 351 352 352 352 352 352 351 351 351 349 349 347 346 344 344 345 348 349 351 353 353 351 349 349 350 349 346 346 348 351 354 355 355 355 355 355 355 354 352 351 351 353 355 355 355
335 335 335 336 337 338 338 339 341 342 343 344 347 350 351 352 352 353 353 354 354 354 354 353 354 355 355 356 357 356 357 357 356 357 358 358 357 353 350 349 351 352 353 353 353 354 354 355 355 354 354 352 351 350 348 347 347 349 350 352 353 352 352 352 353 352 351 349 348 350 353 357 358 358 357 357 356 355 355 354 353 352 354 354 354
334 334 335 335 336 337 338 339 340 341 343 344 347 349 351 352 353 352 353 354 355 354 354 353 354 355 356 357 357 356 354 354 353 354 355 356 355 355 353 352 352 352 354 354 354 354 354 355 356 356 356 355 354 354 353 352 350 350 351 351 351 352 354 355 355 355 355 354 353 353 355 359 360 361 360 360 359 358 358 357 356 354 354 354 354
333 334 334 334 334 335 337 338 338 340 342 344 345 346 347 349 351 353 353 354 355 356 356 355 355 356 357 358 358 357 355 355 355 355 354 353 353 354 354 354 353 353 354 354 355 355 355 356 356 357 357 358 357 357 357 356 355 353 353 352 352 353 355 357 357 356 356 356 356 356 358 359 361 363 362 361 361 359 360 360 359 358 357 356 355
331 333 334 334 334 334 334 335 336 339 342 342 342 344 345 346 348 352 354 354 355 356 357 357 357 358 358 358 357 357 356 356 355 354 355 355 354 354 355 355 354 353 353 355 355 355 356 358 358 360 359 359 359 359 358 358 358 357 356 356 355 353 355 356 357 358 357 358 357 357 357 357 358 359 361 361 360 359 358 358 358 359 359 357 357
331 332 332 332 333 333 333 333 335 339 340 339 340 342 344 345 346 349 351 353 354 355 356 356 356 357 357 358 357 356 356 356 355 355 354 354 355 355 356 356 354 352 352 353 355 356 356 357 358 359 360 360 360 360 360 359 359 359 359 359 357 355 354 355 355 357 357 357 357 356 356 355 354 353 354 356 358 358 358 357 356 356 357 357 358
329 330 331 331 331 332 332 332 334 337 338 338 339 341 343 344 345 347 349 350 351 352 354 354 355 356 356 357 357 356 356 356 355 356 355 355 355 356 357 357 357 354 352 352 353 354 354 354 355 356 356 357 357 358 359 360 360 360 359 359 359 357 355 355 355 355 356 357 356 356 355 354 353 353 351 352 354 356 357 358 358 357 356 357 357
328 329 330 330 330 330 332 333 334 335 337 337 337 338 340 342 343 344 345 344 344 347 350 351 353 355 355 356 355 355 355 355 355 355 355 355 356 356 356 356 357 357 355 354 354 355 353 353 354 354 353 354 354 355 356 357 358 359 359 359 358 358 358 357 356 355 356 356 356 355 355 354 354 354 354 354 354 354 354 356 357 358 357 357 358
327 328 329 329 329 330 331 332 333 335 335 335 336 336 339 340 340 340 340 340 341 343 343 344 345 348 352 354 355 355 355 354 354 354 354 356 356 357 356 355 355 356 356 354 353 353 352 352 351 350 351 351 353 354 354 354 354 355 357 358 358 358 358 356 355 355 355 356 356 356 356 355 355 355 356 356 356 356 355 356 357 357 357 358 358
327 328 328 328 329 329 330 331 333 333 333 333 335 336 337 337 336 336 336 337 337 338 339 339 338 339 341 345 349 352 354 354 355 355 356 356 355 355 355 355 356 357 357 354 352 351 349 347 346 347 348 350 352 354 354 354 355 355 355 355 356 356 357 356 355 355 355 355 356 356 356 356 356 356 357 357 356 356 357 357 358 358 358 359 359
326 327 328 328 328 328 329 330 330 330 331 332 334 335 335 335 334 334 334 334 334 335 336 337 337 336 337 337 340 343 347 350 353 353 352 352 352 353 354 354 356 357 357 355 354 352 349 347 347 349 351 352 353 353 354 355 355 356 357 357 356 356 356 356 356 355 355 356 355 355 356 356 357 357 357 356 357 357 357 358 360 360 360 360 361
326 327 327 327 327 327 328 328 329 330 331 332 333 334 334 334 333 333 333 333 333 334 334 335 337 338 337 337 338 339 340 343 345 346 347 348 349 351 353 354 355 357 357 355 353 351 350 349 350 352 353 352 353 353 353 354 355 356 357 358 359 358 357 356 356 356 356 356 355 356 355 356 356 357 358 358 357 357 357 358 359 361 363 362 362
325 326 326 326 326 326 326 327 328 329 330 331 331 332 333 333 332 332 332 332 332 332 333 335 337 337 339 340 341 341 342 342 343 344 346 347 349 350 352 353 355 356 355 353 352 352 351 350 350 351 352 352 352 352 352 353 355 357 357 358 359 360 360 359 359 358 357 356 356 356 355 356 356 357 358 358 358 358 358 358 358 360 362 363 363
324 324 325 325 325 325 326 326 327 328 328 329 330 330 331 331 332 332 332 332 332 332 334 334 335 337 340 341 340 340 340 341 342 344 344 345 346 347 349 353 356 355 353 351 350 351 351 351 351 352 352 352 353 353 353 354 355 356 358 358 359 359 358 356 355 356 356 357 356 356 357 356 356 356 357 358 358 358 358 359 359 360 361 363 363
323 323 325 325 325 325 326 326 326 326 327 328 328 329 330 330 330 331 331 331 332 333 334 334 334 337 338 337 336 336 338 339 341 341 342 344 346 347 350 353 355 353 351 349 348 349 351 351 352 353 353 353 354 354 355 356 356 356 357 356 355 353 352 352 353 353 353 353 353 355 356 357 357 357 358 358 359 359 358 358 359 359 360 361 362
322 323 324 325 325 325 325 325 325 326 327 327 328 328 329 329 329 329 330 331 332 333 334 334 335 336 335 335 335 336 337 339 340 339 339 342 345 346 349 353 353 352 351 348 347 348 350 351 352 354 354 354 355 354 355 356 357 357 357 356 355 355 354 354 355 356 354 353 352 352 353 355 356 357 357 357 357 357 357 358 359 359 359 360 360
322 323 324 325 325 325 325 325 325 326 326 327 326 327 327 327 327 328 329 330 331 332 333 333 334 335 334 335 336 337 338 339 339 335 334 337 341 344 346 349 351 352 351 350 349 349 349 350 352 353 354 354 355 355 355 356 357 358 357 356 358 358 356 355 355 355 355 354 354 354 353 353 353 354 354 354 353 353 353 356 358 359 359 359 359
322 323 324 325 325 325 325 325 325 325 324 324 324 324 325 325 326 327 328 330 330 331 332 332 333 333 333 335 336 336 336 336 335 332 331 335 340 344 345 345 346 347 348 349 349 348 347 347 350 351 351 353 353 354 354 356 357 358 357 355 356 356 354 353 354 354 354 354 354 354 354 353 352 352 353 354 354 353 353 355 357 358 359 360 360
323 323 323 323 323 323 323 323 323 322 322 322 323 323 324 325 326 327 328 329 330 330 330 331 331 332 332 332 332 332 331 331 330 328 329 333 339 341 341 341 343 344 346 347 348 347 347 348 349 349 350 351 352 353 354 355 356 356 355 354 354 354 354 354 354 354 353 354 354 355 355 354 353 354 354 355 355 355 353 354 356 358 359 360 358
322 322 322 321 321 322 322 322 322 321 321 322 323 323 324 325 326 326 327 328 328 329 329 329 329 330 331 330 329 328 326 326 325 325 327 331 335 335 334 334 335 337 340 341 342 343 343 344 344 345 346 347 349 350 351 352 353 354 354 354 353 354 354 353 354 354 353 354 354 354 355 354 354 354 354 355 355 355 353 354 355 357 356 355 353
319 320 320 320 321 321 321 321 321 321 321 322 322 323 323 324 325 326 326 326 327 327 328 328 328 329 329 327 325 324 322 321 321 323 326 329 329 329 328 329 328 327 328 330 331 333 335 336 337 338 339 340 342 344 345 346 348 349 350 351 352 352 352 352 353 353 353 353 354 354 354 355 354 353 353 354 355 355 354 354 353 354 354 352 350
316 318 318 319 319 320 320 320 320 320 321 321 322 322 323 323 323 324 324 325 326 325 326 326 326 327 325 324 322 321 319 319 320 322 323 324 323 323 323 324 323 321 319 320 322 325 327 327 328 329 332 334 335 337 339 341 341 342 343 344 345 346 347 349 350 351 350 350 351 353 354 354 353 353 354 354 354 355 355 354 353 354 354 353 352
314 315 317 318 318 319 319 319 320 320 321 321 321 322 322 322 323 323 323 323 324 323 324 324 324 324 323 322 320 318 317 317 318 319 319 319 318 317 317 318 318 317 316 314 314 317 319 320 321 322 326 327 328 329 332 334 335 336 336 337 339 340 340 341 343 344 343 344 345 346 347 347 349 350 351 352 353 354 354 355 355 355 355 355 355
312 313 315 316 316 317 318 318 319 319 320 320 321 321 321 321 321 321 321 322 322 322 322 322 322 321 321 320 318 317 315 315 316 315 315 315 314 313 313 312 312 313 314 313 311 311 313 316 317 320 322 323 323 324 326 328 330 331 332 333 336 336 335 335 335 335 336 338 341 342 343 344 345 347 347 349 351 353 354 354 354 354 354 353 353
310 311 312 313 314 315 316 317 318 318 319 319 320 320 320 320 320 320 320 321 321 321 321 320 319 319 319 318 316 315 314 314 313 312 312 311 311 311 310 309 308 309 311 311 310 309 309 311 313 316 319 321 322 321 321 323 325 326 327 329 331 332 331 328 327 328 328 329 332 334 336 338 341 344 347 349 349 349 349 350 351 352 352 352 351
309 309 310 311 312 313 314 315 316 317 317 318 319 319 319 319 319 319 320 320 320 319 318 317 317 316 316 315 314 314 313 312 311 311 310 309 308 308 307 306 306 307 308 308 308 308 308 308 309 311 314 317 319 318 317 317 319 320 321 322 323 325 325 323 322 322 322 322 322 324 326 328 332 336 340 344 346 346 346 347 348 348 350 351 352
307 308 309 309 311 312 313 314 315 315 316 317 318 318 318 318 318 318 318 318 318 317 316 315 314 314 313 312 311 311 311 310 309 309 308 307 306 306 306 305 305 306 306 306 306 306 307 307 308 308 309 312 314 314 314 314 314 315 316 316 317 319 320 320 320 320 320 319 319 320 321 323 325 328 330 334 336 338 340 342 342 344 346 348 350
306 307 308 309 310 311 312 313 314 314 315 316 316 317 317 316 316 317 316 316 315 315 314 313 313 312 311 310 309 309 308 308 307 307 307 306 305 305 305 305 305 305 305 305 305 305 305 306 307 308 308 309 309 310 311 312 312 312 312 313 314 315 317 318 320 320 320 320 320 320 320 320 322 324 326 328 330 332 333 336 337 339 341 343 345
305 306 308 308 309 310 310 311 312 313 314 314 314 314 314 314 314 315 315 314 314 313 313 312 311 310 309 308 307 307 306 306 306 305 305 305 304 304 304 304 304 303 304 304 304 304 305 306 306 307 308 308 307 307 308 309 309 310 311 311 312 312 314 316 318 319 320 320 321 321 321 321 323 324 326 328 329 330 331 333 334 335 337 338 340
305 306 306 307 308 308 309 310 311 311 312 312 312 312 312 312 312 313 313 312 312 311 310 309 308 307 307 306 305 305 305 304 304 303 303 303 303 303 303 303 303 303 303 304 304 303 303 304 305 305 306 306 306 306 305 305 307 308 309 310 311 312 314 315 317 318 320 321 322 323 323 324 325 325 326 326 326 327 328 329 330 332 333 334 335
304 305 305 305 306 307 308 308 309 310 310 310 310 310 310 310 310 310 310 310 309 309 308 307 306 305 305 304 304 303 303 303 302 302 302 302 302 302 303 302 302 302 303 303 303 302 302 303 303 303 302 303 304 304 303 303 305 306 307 309 311 312 314 316 317 319 320 321 322 323 323 323 324 323 323 323 324 324 324 325 326 326 328 328 329
303 304 304 304 305 306 306 306 307 308 308 308 308 308 308 308 308 308 308 308 307 306 306 305 304 303 303 303 302 302 302 302 302 301 301 301 302 301 301 301 301 301 301 301 301 301 301 301 301 301 300 300 301 302 301 302 305 306 307 308 310 313 314 315 317 318 319 320 321 321 321 321 320 320 320 321 322 322 321 322 322 323 323 323 324
Wind_Speed
22 22 22 21 22 23 24 24 23 22 21 22 22 22 22 21 20 20 20 19 19 17 17 17 17 16 15 15 14 14 14 13 13 13 12 12 11 10 11 12 12 11 10 10 9 9 9 9 8 8 8 8 7 7 7 7 8 8 7 7 6 7 7 6 6 6 7 8 9 9 9 9 8 7 7 7 7 8 11 12 11 12 12 12 13
21 22 22 22 22 22 22 23 23 22 21 22 22 22 23 23 22 21 21 21 21 20 19 18 17 17 16 16 15 15 15 15 14 13 13 13 12 11 12 13 13 12 11 11 11 10 9 9 10 9 9 9 9 9 9 9 10 11 11 9 9 11 11 10 8 7 8 9 9 10 10 10 10 9 8 8 10 11 13 13 12 11 11 12 14
18 18 18 20 22 23 22 22 23 23 22 23 23 22 22 23 23 23 22 22 22 22 22 21 20 19 17 17 17 16 16 16 15 15 14 14 14 13 13 14 14 13 12 12 12 11 10 10 11 10 10 11 11 11 11 11 11 12 13 13 13 12 12 12 12 9 9 11 11 11 11 11 10 10 9 11 13 13 13 13 12 12 12 13 14
14 14 13 14 16 20 23 23 22 24 24 24 24 24 23 23 24 24 22 21 22 23 23 22 22 22 20 19 19 18 17 17 17 16 16 15 15 15 14 14 14 13 13 13 12 12 12 12 12 11 11 12 12 12 11 12 12 11 11 11 12 11 10 9 10 10 10 12 13 12 13 13 13 13 13 14 14 13 13 13 14 14 14 14 14
12 15 16 15 15 17 20 23 24 24 25 25 25 25 24 24 24 24 24 23 23 23 24 23 24 25 23 21 21 21 20 19 18 17 17 16 16 16 15 14 14 14 14 13 13 14 14 14 13 13 12 13 13 13 13 12 12 12 12 12 12 12 12 11 11 12 12 14 15 14 13 14 15 15 15 14 14 13 13 14 14 14 15 16 15
8 13 16 16 18 20 21 22 24 26 26 25 26 27 26 25 25 25 25 24 23 24 25 24 24 26 26 24 23 24 23 21 21 20 18 18 17 17 16 16 15 15 15 14 14 15 15 14 14 14 14 15 14 14 14 14 14 13 13 14 13 13 14 14 15 15 15 15 15 16 15 15 16 17 15 14 14 15 15 15 15 16 16 16 14
6 8 11 14 19 23 23 23 23 24 27 26 25 27 27 26 25 26 26 25 24 24 25 25 25 25 26 25 24 25 25 24 23 23 21 19 19 18 17 17 17 17 16 16 16 15 15 16 16 16 16 16 16 16 15 15 15 15 15 16 15 15 15 15 15 15 15 16 16 16 17 17 17 17 15 13 14 16 16 15 17 18 15 12 12
7 5 6 10 14 18 20 22 25 24 24 28 27 26 26 27 27 26 27 27 25 24 24 26 26 25 26 26 25 25 26 26 25 24 24 21 20 20 20 19 18 18 18 17 17 17 17 16 17 18 18 18 18 17 17 16 16 17 17 16 16 16 17 17 16 15 16 16 16 16 17 16 16 16 15 14 15 17 17 17 18 18 14 12 13
10 5 3 4 8 11 12 16 23 30 27 24 28 28 26 26 27 27 27 27 26 25 23 24 26 26 26 26 26 24 25 27 27 26 26 24 22 21 21 21 20 20 19 19 18 18 18 17 17 18 20 21 21 20 19 18 17 17 17 16 17 18 18 18 17 17 16 16 16 16 15 16 16 17 17 18 19 20 19 17 18 18 17 16 14
12 7 4 5 6 8 10 13 19 25 30 28 24 25 26 25 25 26 27 26 25 26 25 23 24 27 27 27 27 26 25 25 27 28 28 27 26 24 22 23 22 22 21 20 20 20 19 19 19 19 19 21 22 23 23 21 20 19 18 16 16 17 17 17 17 17 17 16 16 16 15 16 17 18 19 20 19 19 19 18 17 16 15 14 13
13 10 7 6 7 7 8 10 13 15 18 25 27 24 22 22 23 24 26 26 24 24 26 25 24 24 26 27 26 25 25 25 27 29 30 29 29 27 26 25 24 24 24 22 21 21 21 20 19 19 19 20 20 22 23 23 22 22 22 21 19 18 18 17 17 17 18 17 17 17 16 17 19 19 20 19 18 18 17 16 14 11 9 9 11
13 12 10 8 7 7 8 8 11 13 13 15 19 22 22 20 19 19 22 26 25 23 24 26 25 24 23 25 26 26 26 26 27 29 31 32 31 29 28 26 25 25 25 25 24 23 22 22 21 20 20 20 20 21 22 23 23 24 25 26 25 25 23 22 20 19 19 18 18 18 18 19 19 20 19 19 18 18 17 16 15 14 14 13 13
15 14 13 13 11 10 10 10 11 14 15 13 15 19 20 20 21 20 19 23 26 25 24 23 25 26 24 23 23 26 27 27 28 29 31 33 33 32 29 27 26 26 26 26 26 26 25 25 23 23 22 22 22 23 24 27 27 27 28 28 28 29 28 28 28 26 25 23 21 20 21 20 21 22 22 20 19 18 17 18 19 18 17 16 17
16 17 16 15 16 15 15 14 13 14 15 15 17 20 20 21 22 22 18 17 18 23 25 23 22 25 27 26 24 23 25 27 29 31 32 33 34 35 33 29 26 27 27 27 28 27 28 28 27 27 26 25 25 24 23 25 27 29 29 29 29 29 29 30 30 31 32 31 30 30 29 28 27 27 26 23 21 20 20 20 20 19 19 20 20
16 16 16 17 18 20 18 16 16 16 16 17 17 17 17 18 19 18 16 17 15 13 16 21 23 23 25 28 27 25 24 24 27 31 34 35 35 36 36 34 29 27 27 28 28 28 28 28 29 29 29 28 28 27 24 22 22 24 26 28 29 29 30 31 31 31 33 35 37 38 38 37 35 35 33 29 26 25 24 24 24 22 21 21 21
15 15 15 16 17 19 20 19 18 18 19 19 18 16 16 16 16 15 15 16 17 17 16 17 22 24 25 26 27 28 28 27 27 29 32 35 36 36 37 37 34 31 29 29 29 29 29 28 28 28 28 28 28 28 27 25 23 22 23 24 25 26 28 30 30 30 31 32 35 37 37 38 38 38 37 34 30 28 25 24 24 23 22 21 21
16 15 15 15 16 17 18 19 20 19 19 19 18 15 14 14 13 14 15 17 19 21 20 19 21 23 26 27 28 28 29 30 30 30 30 32 35 38 39 39 37 35 33 32 31 30 30 30 30 30 30 29 29 28 27 27 27 27 26 25 24 24 25 25 25 26 26 27 28 30 31 32 33 34 35 34 33 30 25 23 22 21 20 18 17
15 16 16 16 16 16 17 17 18 19 18 18 15 12 13 16 16 16 15 15 19 25 28 27 24 22 23 25 27 28 28 29 30 32 33 33 34 37 39 38 36 35 35 34 34 33 33 33 33 33 34 34 33 31 29 28 28 29 29 28 27 27 27 25 23 24 25 26 27 29 30 30 30 31 32 33 33 31 29 29 27 23 20 17 17
14 14 15 16 16 17 17 17 17 17 17 17 16 14 15 17 17 18 19 20 21 23 24 26 26 23 22 23 25 27 28 27 28 30 32 33 33 35 38 37 34 33 33 32 32 33 34 34 34 35 36 37 36 35 33 31 31 31 31 30 29 31 31 28 26 25 25 25 26 29 31 32 32 32 32 31 31 31 32 33 31 28 24 23 22
12 13 13 14 14 15 16 16 17 16 15 14 16 17 17 17 17 18 21 23 24 23 21 22 25 26 26 24 24 26 29 29 28 28 30 32 33 34 35 34 32 32 31 30 29 30 31 33 34 36 37 38 38 38 37 36 35 34 32 31 31 33 32 29 28 27 27 27 26 26 27 28 31 33 34 33 32 32 33 35 34 32 29 26 25
12 12 13 13 13 12 13 14 14 14 12 12 14 16 17 17 17 18 21 23 24 24 22 22 24 24 24 22 21 19 16 13 13 15 18 22 28 33 34 33 32 31 30 28 28 28 29 30 33 34 36 37 38 39 39 40 39 38 36 35 37 36 32 28 26 25 25 26 27 26 25 25 27 30 32 33 34 34 34 35 35 35 34 31 29
12 12 12 12 13 12 12 12 12 12 12 13 14 16 17 17 17 18 19 20 21 21 21 22 22 21 21 20 17 11 10 14 13 13 15 17 21 27 33 35 34 32 29 27 27 28 29 30 31 32 34 35 36 37 38 39 41 41 42 42 42 39 35 31 28 26 24 24 24 24 24 23 24 26 29 30 31 31 33 34 33 32 32 33 33
13 13 12 12 13 13 12 12 12 12 12 14 15 17 17 18 18 17 16 17 17 16 17 17 15 15 16 17 16 15 14 14 16 19 22 23 23 26 32 37 37 35 31 29 28 28 29 30 30 31 32 34 35 35 35 36 39 41 42 43 43 42 40 36 33 30 28 26 25 24 23 22 22 24 26 28 28 29 30 31 31 30 30 30 32
14 13 12 12 13 14 13 13 13 11 11 13 16 16 17 19 20 17 15 15 15 14 14 13 12 11 12 15 19 21 22 22 21 20 20 21 22 24 27 33 38 38 34 29 28 27 26 28 29 29 31 33 34 35 35 35 36 39 40 40 41 42 42 40 37 33 31 29 28 27 28 27 26 26 26 27 28 28 29 29 29 30 30 30 30
15 13 13 13 13 14 15 15 13 10 11 13 14 15 16 17 18 18 16 15 14 14 15 14 14 12 12 15 19 22 23 24 24 22 20 18 19 21 22 25 32 37 36 31 27 25 25 26 27 28 29 29 30 32 35 37 37 37 38 38 38 40 42 42 40 35 32 30 30 30 32 33 34 34 33 30 28 27 27 28 29 29 29 28 27
17 15 13 13 14 14 15 15 13 12 12 12 12 13 15 15 16 16 16 16 16 15 14 15 15 15 14 14 16 19 21 22 23 23 23 20 19 19 19 20 23 30 36 38 35 32 31 30 30 31 31 31 30 30 32 35 37 38 38 38 39 41 42 42 39 35 33 33 33 33 35 34 33 34 35 33 32 31 30 29 29 29 29 28 27
18 16 14 13 14 14 14 15 15 14 13 11 10 12 13 13 14 14 15 17 19 18 16 14 14 14 14 14 15 16 16 17 18 20 19 17 16 17 19 19 19 21 29 37 40 40 40 38 36 34 33 34 35 33 32 32 34 37 39 40 41 42 43 42 40 37 36 35 34 34 35 33 31 31 31 31 33 35 35 33 32 31 31 30 29
18 17 16 14 13 13 13 14 14 13 12 12 12 11 11 12 13 14 15 16 17 17 18 18 18 17 15 15 14 13 12 12 13 15 14 12 12 15 17 18 19 20 24 29 35 39 41 41 41 38 34 34 36 37 36 35 35 35 37 39 40 42 42 42 40 38 38 36 33 32 32 31 31 31 30 31 32 33 34 34 34 34 33 31 28
19 18 17 14 13 13 13 12 12 12 13 14 13 11 10 11 13 14 16 16 16 18 20 21 21 20 19 18 16 13 12 10 9 10 11 12 14 15 16 17 18 20 21 22 24 29 34 36 35 33 33 34 35 34 34 34 35 35 35 36 36 37 39 40 39 39 37 34 32 32 31 30 30 30 30 30 32 31 31 32 33 34 33 31 29
19 18 17 14 12 12 12 11 11 13 14 14 14 14 14 13 12 13 16 17 16 17 18 19 20 21 21 21 20 18 17 15 12 12 14 17 19 21 21 21 21 22 23 21 21 24 28 29 28 28 29 30 30 31 31 31 31 31 32 32 32 33 35 37 39 39 38 36 34 33 31 30 30 30 29 31 31 30 30 31 32 32 31 30 29
18 18 17 16 13 12 13 13 13 13 13 14 15 16 15 14 13 13 14 15 16 16 15 16 17 19 19 19 19 19 20 20 20 19 20 21 22 23 24 24 25 27 27 25 26 28 29 25 24 25 26 25 26 29 30 30 31 31 30 29 29 30 31 33 34 35 35 34 34 33 32 31 30 30 29 30 30 30 29 30 30 31 31 30 29
20 20 20 19 16 15 14 14 13 13 13 15 16 16 16 16 15 14 13 14 16 17 15 13 14 15 16 16 16 17 17 16 17 17 18 19 21 24 25 26 27 27 25 24 27 31 30 25 23 23 22 22 25 28 28 28 30 30 28 27 28 28 30 31 32 33 33 32 32 31 31 31 31 31 30 30 29 29 29 29 29 29 29 29 30
21 22 23 21 18 16 15 14 14 13 14 15 16 16 16 16 16 16 17 16 16 16 14 12 13 13 12 11 15 18 19 17 16 17 18 19 22 24 25 24 23 23 23 25 29 31 28 25 24 24 21 21 23 25 26 26 27 27 28 29 28 25 23 22 23 25 28 30 30 29 30 30 31 30 30 30 30 29 29 29 29 29 28 28 29
21 22 23 23 20 15 13 14 15 16 16 17 15 15 16 16 17 18 18 17 16 15 14 13 12 11 9 10 15 19 19 16 14 15 16 17 19 22 25 26 24 22 22 27 30 29 27 26 26 25 23 22 23 23 23 24 25 26 27 27 24 22 20 21 22 23 23 24 25 28 28 28 28 29 29 28 28 29 29 29 29 28 29 29 28
23 23 24 24 22 16 13 15 18 18 16 14 12 13 14 16 17 18 17 17 17 16 14 13 12 12 12 13 15 17 17 15 14 16 18 19 19 20 22 26 27 24 23 26 30 31 30 29 29 27 25 23 22 22 22 22 24 26 27 26 25 25 26 25 26 27 25 22 22 26 27 26 26 26 25 25 25 25 27 29 29 30 31 31 30
21 21 21 22 19 16 14 15 15 13 13 13 12 13 14 17 18 19 18 18 17 16 14 14 13 13 14 13 11 13 14 15 17 20 22 20 19 20 20 21 24 24 25 27 30 32 32 31 30 28 25 23 22 21 22 24 27 30 31 31 31 32 31 25 22 23 24 23 24 26 27 27 27 25 23 21 21 24 29 31 31 32 32 32 31
19 20 20 19 16 15 14 13 11 12 14 15 15 15 16 17 18 19 19 19 17 15 15 15 14 13 12 10 9 11 14 18 21 23 21 18 17 19 19 18 19 21 24 27 28 28 29 30 30 28 26 25 24 23 24 26 28 29 30 31 31 30 27 22 20 20 22 23 24 24 23 22 21 20 20 20 23 31 35 32 30 32 34 34 33
17 17 18 16 15 16 16 14 13 14 16 16 15 15 17 17 17 18 19 18 17 16 16 15 15 13 10 9 12 16 19 21 23 22 19 17 16 17 16 16 16 18 22 24 24 23 24 25 26 26 26 26 26 25 26 28 29 29 29 29 29 27 24 22 23 23 23 22 20 20 20 19 16 16 17 19 27 35 36 31 29 31 31 30 29
14 14 14 14 15 15 15 14 15 15 14 14 14 16 17 17 17 17 17 17 16 16 16 16 16 13 9 9 14 19 20 19 18 18 16 14 13 14 15 16 17 17 18 19 17 15 14 15 14 15 16 16 16 17 20 24 28 31 31 29 29 28 24 22 21 21 20 19 19 20 21 21 20 20 22 23 27 32 33 33 34 31 26 26 28
17 16 15 14 14 14 13 14 15 15 14 14 15 15 16 16 16 16 16 16 16 15 15 16 15 11 8 10 14 17 17 15 14 14 14 13 13 14 15 17 19 20 19 19 17 15 13 11 10 9 9 8 8 9 10 12 15 18 21 22 22 22 20 18 18 19 19 21 22 23 25 24 22 22 23 23 25 28 32 35 37 33 30 31 35
19 18 17 16 15 14 14 14 15 15 16 17 16 16 16 17 17 16 16 16 16 15 15 15 14 12 10 11 14 16 16 15 13 13 13 13 13 13 14 15 16 18 19 19 19 18 16 13 10 10 9 9 10 11 10 10 11 11 12 13 14 13 12 12 12 13 15 16 17 18 18 19 19 21 24 23 23 26 29 32 34 35 35 35 36
18 18 18 18 17 15 14 15 16 17 17 17 16 16 17 17 16 16 16 16 15 14 14 15 15 14 13 12 15 17 17 13 11 12 12 12 12 12 12 13 13 15 17 18 17 17 16 13 10 10 10 10 10 11 12 12 13 13 14 15 15 14 14 13 13 13 14 15 16 15 13 12 13 16 20 22 24 26 29 32 35 36 34 31 30
17 18 18 19 18 17 17 17 18 18 18 16 15 16 17 17 15 15 16 16 16 15 15 15 15 15 14 14 16 17 14 9 9 11 11 12 12 12 11 12 13 14 15 15 13 14 14 13 11 10 10 10 10 11 11 12 13 14 15 16 17 17 17 16 16 16 17 18 20 21 20 19 18 17 18 20 22 24 26 30 34 36 33 30 28
16 17 18 18 19 19 19 19 19 20 19 17 17 18 18 17 16 15 16 17 17 15 14 13 13 13 14 15 15 13 11 10 10 11 11 12 12 12 12 12 12 12 12 12 11 12 13 12 11 9 9 9 9 10 11 12 13 14 15 16 17 18 18 16 16 17 18 19 20 21 22 22 22 23 25 26 26 25 23 24 27 29 29 28 29
16 16 17 18 18 19 19 19 20 20 19 17 16 16 15 15 14 14 15 15 14 13 11 10 11 12 13 14 13 12 12 11 11 11 11 11 12 12 12 12 12 12 11 11 10 10 11 11 11 9 7 7 7 7 8 9 10 11 12 14 15 17 18 17 17 17 18 19 20 20 19 18 18 20 23 27 30 31 31 30 30 30 29 28 29
17 16 17 18 18 18 18 18 19 19 19 17 16 15 15 14 13 14 14 13 12 11 10 9 10 11 12 12 12 11 11 11 11 11 11 11 10 11 11 12 12 12 11 11 10 9 9 9 10 9 7 6 5 6 6 7 8 9 9 10 11 13 15 17 17 17 17 17 17 17 17 16 15 15 18 22 26 28 31 32 32 32 31 31 30
17 17 17 17 16 16 17 17 18 19 19 19 16 15 13 12 12 12 13 12 11 11 10 10 10 11 11 11 11 11 11 11 11 11 11 11 10 10 11 11 12 12 11 10 10 9 8 8 9 9 8 7 8 10 10 10 11 11 11 10 11 12 13 14 15 15 15 15 15 15 14 13 13 13 14 16 18 20 22 24 25 26 27 28 29
16 16 16 15 15 16 16 16 17 18 17 15 14 12 11 10 10 11 12 11 10 10 10 9 9 9 9 9 10 10 10 11 10 10 10 10 10 10 10 10 10 10 10 9 9 8 8 8 8 8 8 8 9 10 12 13 13 14 14 13 14 14 15 15 14 13 13 13 12 11 10 10 10 11 12 13 14 16 17 19 21 22 23 24 24
15 14 15 15 15 15 16 16 16 15 14 13 12 11 10 10 10 10 11 10 9 8 7 7 7 8 8 9 9 9 10 10 9 9 9 9 9 9 9 8 8 9 9 9 9 8 7 7 7 8 8 8 8 8 9 12 14 14 14 14 13 13 13 13 12 11 12 11 10 8 8 8 9 9 10 11 12 12 14 15 17 19 21 22 21
14 13 14 15 14 15 15 15 14 13 12 12 11 10 10 10 10 10 10 9 7 6 6 5 6 6 7 8 8 8 9 9 8 7 8 9 8 8 8 8 7 8 8 8 8 8 7 7 8 9 8 6 5 5 6 10 14 15 15 13 12 12 11 10 9 8 8 9 9 8 8 7 7 8 9 9 8 8 9 9 10 11 13 15 16
13 13 13 13 14 14 14 13 13 12 12 11 9 9 9 10 10 10 9 7 6 5 4 4 4 4 5 6 7 7 7 8 7 6 6 7 7 8 8 8 7 7 7 8 8 9 8 8 9 9 9 7 5 4 6 10 14 15 15 14 12 11 10 10 8 7 7 7 7 8 7 6 7 9 10 9 8 10 11 11 11 11 11 11 11
Wind_Direction
196 195 195 198 198 197 198 201 201 201 202 199 198 197 197 197 194 192 192 192 194 192 191 192 190 191 191 191 194 193 192 195 197 200 201 202 210 215 211 210 209 213 222 223 224 223 217 219 224 223 223 228 236 237 225 200 197 218 233 227 224 229 228 228 245 274 287 287 292 293 287 293 296 284 284 292 292 292 294 301 306 303 304 299 291
202 199 198 200 201 200 200 202 202 203 205 203 202 201 199 199 197 195 194 194 194 193 194 195 194 193 195 195 196 197 198 197 198 202 204 205 208 212 217 215 208 212 222 225 228 226 217 217 223 224 223 226 229 231 231 220 206 213 222 221 224 231 229 224 230 256 273 277 284 287 284 283 282 283 285 287 290 288 288 298 306 304 301 295 291
208 200 201 207 206 202 202 204 203 204 206 207 205 203 202 200 199 198 197 196 196 196 195 196 196 195 196 197 198 199 200 199 200 205 207 208 210 211 217 217 212 214 221 223 226 227 226 224 224 224 223 223 225 227 232 233 224 220 219 213 217 229 231 223 224 236 256 269 276 279 280 282 283 283 284 286 292 290 289 296 301 295 292 292 293
218 204 208 222 224 214 205 204 205 205 207 208 208 206 203 201 200 200 200 199 197 198 198 196 197 197 197 199 200 200 200 200 201 207 210 211 212 215 219 220 215 214 219 223 225 225 226 226 226 227 226 225 224 226 232 238 238 238 234 226 226 238 244 236 233 238 249 262 271 272 276 281 282 283 284 285 287 286 287 291 292 292 292 293 294
228 216 213 221 238 240 225 212 206 207 210 209 209 209 206 202 201 200 201 202 199 198 199 199 198 199 199 200 201 201 202 202 203 206 210 212 214 216 220 222 218 218 222 225 228 228 227 228 228 228 229 230 229 228 231 236 239 241 241 241 244 249 254 257 259 257 253 256 263 269 273 276 279 282 283 284 284 283 285 286 289 292 293 293 293
236 222 222 228 234 236 238 232 216 208 211 212 209 209 209 205 201 200 203 204 201 198 198 199 200 200 200 201 203 204 204 204 205 206 208 212 214 215 219 221 221 223 226 227 230 232 231 231 232 230 229 231 232 231 230 231 237 242 240 239 241 244 248 251 251 252 252 254 260 268 272 274 278 282 283 281 278 278 280 281 284 290 293 292 289
281 247 245 254 241 224 228 243 241 222 213 215 214 209 208 209 204 200 202 205 205 202 198 199 201 201 201 202 204 206 205 205 206 208 207 210 214 215 216 219 221 223 226 227 228 230 231 232 232 232 231 232 233 235 234 231 232 238 242 241 237 238 246 248 246 246 248 254 260 265 270 272 273 274 277 278 274 273 272 272 280 288 288 282 283
355 316 280 268 253 233 228 244 262 259 232 217 217 213 208 209 208 204 200 202 208 209 203 199 199 201 203 204 205 207 208 207 208 209 209 210 213 216 216 218 220 221 224 226 227 228 229 229 230 231 232 232 233 234 236 236 235 235 239 242 239 237 241 245 248 250 248 249 254 258 263 268 270 272 277 280 278 275 271 267 270 277 276 275 285
33 19 346 303 271 262 254 249 264 279 274 244 225 218 213 210 209 207 202 200 206 212 212 205 199 199 203 205 205 208 209 209 210 211 211 210 212 215 217 219 220 221 223 224 227 229 231 232 232 231 230 231 232 232 233 235 236 237 239 241 240 239 239 239 242 248 252 252 254 258 263 267 271 272 271 268 267 267 265 260 257 262 268 273 279
37 44 33 354 321 290 278 256 249 272 291 288 262 236 223 215 210 209 206 204 205 208 213 215 206 199 200 204 207 208 211 213 212 213 213 212 213 214 217 219 220 222 224 225 226 228 230 233 236 237 237 235 233 232 232 231 233 238 240 240 241 241 242 241 240 243 250 254 255 257 260 263 265 265 263 263 264 264 262 260 260 265 268 270 276
28 36 38 8 344 331 312 279 245 247 279 292 289 277 257 235 221 213 208 209 210 208 210 216 218 209 201 201 206 210 213 216 215 215 216 216 214 213 216 219 220 222 225 227 229 231 231 234 237 242 246 246 242 237 235 233 234 238 241 242 241 241 241 243 244 245 247 251 254 254 255 258 260 261 263 267 269 269 267 266 272 280 279 277 282
23 30 31 9 334 327 330 307 270 257 260 261 268 278 279 266 249 232 213 208 211 213 210 212 219 223 215 207 206 211 216 219 219 219 218 219 218 216 216 218 219 221 224 227 231 233 235 237 240 242 245 247 246 240 237 237 240 243 246 248 247 245 243 241 242 243 243 246 249 250 251 255 259 260 260 263 267 269 269 269 277 285 286 281 276
22 24 24 13 351 335 333 327 301 284 277 260 250 257 263 264 263 257 235 214 209 212 215 215 217 222 227 225 216 212 215 220 222 223 222 222 222 220 218 219 220 221 223 226 229 232 235 237 239 242 244 246 247 243 238 238 241 244 249 252 252 251 250 248 246 246 246 247 249 250 250 252 255 256 256 258 262 267 268 269 273 275 274 271 270
21 17 15 11 3 358 356 350 337 315 297 286 278 270 260 254 258 264 259 243 223 212 213 218 220 222 227 233 234 227 221 220 221 222 224 225 225 224 223 222 222 223 224 226 228 230 233 235 237 241 243 246 250 251 246 241 240 242 245 248 250 252 252 251 250 248 247 246 247 249 250 249 251 253 254 254 256 260 263 264 267 268 267 268 270
20 14 9 4 359 357 357 352 346 338 325 308 296 287 280 277 284 292 294 295 296 271 235 224 224 226 226 230 237 241 236 230 226 223 222 224 226 227 226 226 227 228 229 229 230 231 233 234 236 239 241 243 245 249 250 246 242 240 241 244 248 251 253 254 254 253 250 247 247 249 252 253 253 253 255 256 258 261 264 265 267 268 269 268 268
15 12 7 1 356 353 353 351 348 345 339 329 317 305 298 303 316 316 293 282 290 296 287 260 238 232 230 229 233 238 238 238 237 233 227 225 225 226 226 226 228 231 233 234 235 236 236 237 237 238 240 241 242 243 245 246 245 242 241 243 246 250 253 257 260 260 258 255 253 253 256 258 259 259 259 258 258 260 264 266 264 261 260 261 262
6 4 3 357 353 352 351 350 347 346 346 341 332 316 298 293 298 291 269 251 243 243 249 255 248 240 237 232 232 235 236 236 238 239 236 230 226 224 224 225 227 231 234 237 239 240 241 241 242 242 243 243 244 243 242 243 243 244 244 244 245 247 251 255 260 263 264 263 261 260 262 263 263 263 262 261 259 258 258 260 259 254 251 251 253
360 356 355 351 349 350 348 346 346 346 350 348 339 319 292 278 269 263 256 249 245 239 235 234 237 243 247 243 238 239 241 240 239 239 239 236 231 227 224 224 227 230 233 237 239 242 244 245 245 246 246 247 246 246 245 244 242 242 244 246 247 247 249 251 254 259 262 262 261 261 262 263 262 261 261 260 259 257 253 252 254 254 253 253 257
358 352 349 345 345 346 345 345 347 349 349 343 332 321 306 290 272 258 251 247 252 258 253 242 238 244 252 252 246 244 244 245 245 243 242 240 237 232 227 224 226 230 234 237 240 243 245 247 247 247 247 248 248 247 246 244 243 244 243 244 245 247 249 249 249 253 257 258 258 256 256 258 258 258 258 257 257 255 252 251 251 252 253 255 258
352 348 345 342 341 344 344 344 344 345 343 332 322 320 315 303 286 271 263 258 258 263 261 251 247 247 246 247 248 246 245 246 248 249 248 245 242 237 230 226 228 232 235 238 241 244 247 248 249 249 249 249 249 248 247 245 244 245 244 242 243 246 248 248 247 250 253 256 258 258 257 257 256 255 254 254 254 254 253 251 249 249 249 252 255
344 342 342 339 337 339 341 341 337 334 332 323 312 310 308 303 295 285 278 272 268 265 259 253 252 253 252 254 256 254 261 281 287 282 274 263 252 244 234 230 232 235 237 240 241 244 248 249 250 251 251 251 250 249 248 247 245 244 243 242 244 246 247 246 247 249 251 254 255 256 255 254 252 251 250 250 251 252 254 254 252 249 247 246 248
337 336 338 337 336 335 334 333 330 325 325 323 316 312 309 306 301 294 286 280 276 271 263 256 257 261 263 268 273 283 325 344 327 295 282 276 266 254 243 239 238 238 238 241 243 246 249 250 251 252 252 252 252 251 249 248 246 245 245 246 248 248 247 245 247 248 250 253 254 253 250 244 239 239 239 242 245 248 250 252 253 253 251 248 247
329 330 333 334 333 330 326 326 326 322 322 324 322 319 317 314 308 297 284 279 278 275 268 261 259 265 268 271 278 280 279 278 271 260 253 252 253 250 243 241 240 237 237 239 243 246 250 252 254 255 254 253 253 252 251 248 246 246 247 248 249 249 248 246 247 248 249 251 253 253 251 246 239 233 231 233 238 241 242 245 248 249 251 252 251
320 321 328 331 330 328 326 323 320 318 322 326 323 319 318 316 312 305 293 283 276 272 270 265 258 262 267 269 274 275 269 266 269 272 270 265 260 254 248 244 240 236 235 237 241 245 250 254 255 255 254 254 254 252 252 250 248 247 247 248 249 249 248 246 246 247 248 249 249 250 250 248 246 242 238 236 237 239 241 243 245 246 248 252 254
311 315 323 326 325 325 323 318 315 318 323 321 317 316 316 315 313 313 310 302 290 278 274 270 264 263 266 270 274 277 277 276 277 279 284 287 278 268 264 258 248 240 236 236 239 244 251 259 262 261 258 255 255 253 251 249 249 249 248 248 248 247 247 246 245 245 246 246 247 248 248 247 246 246 245 244 244 245 244 245 247 248 249 251 252
309 311 316 319 320 321 319 316 315 317 316 313 311 313 313 312 314 318 320 322 322 312 297 286 278 273 272 275 279 280 278 280 281 280 281 285 281 271 266 265 258 248 243 241 242 244 246 251 260 269 272 269 263 258 253 249 249 250 249 248 246 244 244 244 243 241 242 243 244 245 247 248 248 249 248 246 246 246 245 245 247 247 248 249 249
308 307 306 309 312 314 314 313 312 311 310 312 314 311 311 314 320 326 331 336 340 338 331 320 307 293 282 276 277 281 282 283 285 283 282 283 283 278 274 273 272 264 253 247 247 247 247 247 249 257 269 275 272 267 263 258 253 251 249 247 244 243 242 242 241 239 240 241 243 244 247 249 250 250 248 245 244 245 244 244 246 247 247 248 248
300 297 296 299 304 307 306 304 305 308 311 313 311 309 312 319 323 327 330 332 333 331 328 326 321 313 302 291 282 277 274 273 277 279 276 269 268 276 282 281 279 276 267 257 251 249 249 250 250 251 256 265 267 265 264 262 260 256 254 251 248 245 243 242 241 241 241 242 243 245 246 247 247 246 245 243 242 243 243 242 242 244 245 245 245
299 294 291 292 295 298 298 298 305 313 313 310 307 304 303 305 310 312 311 313 319 319 313 312 314 313 305 297 290 283 277 270 262 260 263 265 267 274 279 276 271 271 272 267 260 253 249 249 252 254 254 255 257 258 259 259 259 257 254 253 252 249 247 243 242 242 244 244 244 244 243 243 244 244 244 244 244 243 241 240 239 240 240 240 241
297 292 288 287 291 296 298 303 310 311 308 305 305 303 300 297 299 304 304 306 313 316 309 307 312 312 303 292 285 280 277 274 264 257 264 270 271 271 272 270 264 261 263 266 266 258 248 243 245 248 249 248 250 253 255 257 257 256 253 250 247 246 245 243 242 243 245 245 244 244 244 243 243 243 242 243 244 243 241 239 238 236 235 235 238
294 290 286 284 289 297 301 302 303 302 301 302 301 301 301 298 294 297 304 307 308 310 311 313 316 315 309 302 296 288 280 277 275 275 276 274 270 267 267 267 266 261 257 256 257 253 245 240 239 240 241 243 247 252 255 258 258 256 254 251 246 243 241 241 242 244 245 244 245 245 244 242 243 244 243 243 244 244 242 240 238 235 232 232 236
290 289 287 284 283 286 290 293 295 299 302 302 300 299 300 299 297 299 303 303 305 309 315 321 323 319 313 312 313 310 303 295 289 285 281 273 268 266 264 264 266 265 257 249 248 247 241 238 239 240 239 243 249 253 256 258 258 257 256 256 252 246 241 241 243 241 239 239 240 242 243 244 244 244 245 246 246 245 242 240 238 236 234 234 235
287 287 285 282 279 280 284 289 295 299 298 297 297 298 299 299 301 303 303 302 306 312 313 314 320 322 319 318 320 316 311 305 298 292 287 281 275 272 267 263 263 261 253 243 241 241 239 238 241 243 242 243 248 252 254 256 258 259 259 260 260 260 261 268 270 261 251 246 244 242 242 243 243 244 246 247 247 247 246 243 241 239 238 237 237
288 287 285 280 276 277 286 293 295 290 283 282 287 294 299 301 300 301 304 306 308 311 310 311 317 321 323 326 323 316 312 309 305 303 302 298 290 281 271 264 261 257 248 240 238 238 240 242 245 246 246 246 248 251 254 255 258 260 260 262 269 277 284 290 292 284 274 269 265 260 255 250 246 244 244 245 247 249 249 248 246 243 242 241 240
286 285 285 283 278 275 278 283 284 283 283 289 296 297 299 301 301 301 302 301 301 302 306 311 313 314 318 320 311 302 301 305 308 310 309 304 299 293 279 269 266 264 255 244 239 237 239 242 246 248 248 249 250 252 253 255 259 261 261 260 261 260 258 257 259 260 259 261 263 265 267 267 261 255 251 250 252 256 256 254 250 246 244 245 244
287 284 284 286 284 279 279 281 286 297 310 317 316 308 301 300 300 298 293 288 288 293 300 305 307 310 315 313 296 284 288 294 300 309 312 305 295 292 286 274 269 268 263 256 249 244 243 245 249 251 253 253 255 255 255 256 257 257 257 257 257 255 252 249 249 253 257 258 256 257 260 262 264 271 277 275 270 266 263 259 255 252 248 247 246
288 287 287 290 291 289 291 295 304 315 317 314 310 303 296 291 288 286 285 283 284 288 294 297 300 305 309 304 289 284 290 291 294 304 316 316 304 295 286 275 269 269 268 267 264 260 256 255 257 260 261 261 259 258 257 258 259 259 261 264 265 263 261 261 263 267 272 274 272 269 268 266 268 278 286 282 269 261 256 255 259 259 254 249 246
290 292 293 297 297 294 295 299 304 307 308 306 302 294 287 282 280 280 283 285 288 290 289 287 289 295 301 299 297 300 303 302 303 308 317 324 322 316 306 294 286 280 276 276 274 270 266 265 267 269 268 266 264 262 261 261 263 266 269 271 269 268 268 273 276 277 278 279 279 278 278 277 275 273 271 265 259 256 254 255 260 262 262 259 256
314 307 303 302 299 295 294 297 301 303 301 296 291 286 282 281 281 282 284 287 289 292 293 294 297 301 302 300 305 310 314 317 317 316 316 315 315 316 316 313 308 301 295 294 293 287 279 277 280 282 280 277 274 270 267 266 266 266 265 266 267 269 272 277 281 281 278 276 275 274 271 269 267 265 264 264 262 259 257 255 256 260 271 277 274
330 321 315 311 306 303 302 298 296 294 291 287 286 285 284 285 286 287 289 292 294 296 298 300 303 307 308 307 312 319 324 325 318 309 305 304 303 300 301 305 309 312 312 311 311 311 309 305 302 302 305 307 304 293 284 280 276 269 264 263 267 273 281 286 288 289 286 282 279 275 270 267 266 265 265 268 271 268 263 259 259 261 263 264 264
328 324 321 317 311 307 304 297 291 289 287 287 287 285 285 289 292 293 293 294 296 296 297 299 303 310 315 315 316 318 320 317 308 298 295 299 303 301 296 295 301 308 313 315 315 314 315 318 318 315 312 310 309 305 299 295 294 292 290 288 286 291 301 305 301 299 299 296 291 286 277 270 268 267 264 264 268 269 266 263 263 261 257 255 254
326 322 319 316 312 308 302 296 294 293 293 293 291 289 291 293 294 293 293 294 296 297 296 296 299 304 309 313 318 321 321 313 300 295 296 297 300 302 301 297 294 296 303 312 317 315 315 318 322 322 320 319 317 314 310 305 304 305 307 307 308 312 315 314 308 304 303 300 299 300 300 292 284 280 276 270 267 266 263 260 259 258 257 255 255
325 320 315 311 310 308 302 297 294 292 292 294 294 293 295 296 296 296 297 295 293 291 290 291 294 298 301 307 316 322 322 310 297 298 301 300 300 302 303 303 299 297 300 308 314 315 313 313 312 314 317 321 322 322 319 316 315 315 313 311 312 314 315 315 310 305 300 297 293 293 294 294 292 293 291 283 275 272 268 263 261 261 262 264 266
322 318 313 309 307 304 301 298 295 291 288 289 291 292 293 292 290 288 287 286 286 287 288 294 302 305 304 305 310 313 311 305 301 301 300 300 301 301 304 305 305 306 310 313 314 317 317 314 309 309 312 314 318 324 326 323 319 318 318 315 311 309 309 311 310 305 301 300 296 293 293 294 294 292 289 285 281 281 279 273 269 268 267 265 262
319 315 311 307 305 302 301 299 298 296 294 293 291 290 290 290 289 287 286 289 295 300 306 313 313 309 305 304 305 305 304 304 302 300 299 302 303 304 306 309 311 316 321 321 320 324 325 319 315 316 317 316 320 329 336 339 336 331 325 321 315 309 306 307 306 304 302 301 299 296 295 294 291 289 287 284 281 280 278 275 273 274 272 268 262
317 312 306 302 299 298 298 298 298 299 301 299 295 291 289 290 292 295 297 302 307 311 315 314 305 300 302 306 307 306 305 305 304 303 302 303 305 305 309 312 315 318 321 320 320 326 330 326 323 323 326 341 9 19 13 10 8 357 343 333 324 315 310 308 308 308 306 304 302 300 298 293 286 283 281 278 276 275 274 273 273 273 273 273 273
311 307 303 299 297 297 298 298 298 299 299 298 297 295 293 294 296 297 297 300 305 305 303 298 294 295 299 304 307 309 307 306 306 306 306 306 307 308 312 315 316 317 318 319 323 331 338 336 334 333 333 353 29 44 41 33 28 20 10 359 347 336 328 322 319 317 315 312 309 307 303 294 284 278 274 272 273 274 276 278 280 279 279 280 279
309 307 305 303 300 298 297 297 298 300 300 300 301 302 301 301 304 300 295 293 298 301 302 303 307 309 307 306 308 311 309 307 307 309 310 312 314 314 315 317 319 320 322 324 331 343 349 347 344 342 339 347 12 35 43 41 33 25 18 10 359 350 344 340 338 336 336 333 327 319 310 298 288 285 287 289 292 293 292 292 292 291 291 290 287
309 310 309 307 303 299 298 299 299 300 301 303 305 309 310 309 306 302 298 296 300 308 313 317 321 320 316 312 311 312 311 310 311 312 314 316 317 319 322 324 326 329 332 334 339 349 358 -0 357 350 342 340 349 9 33 45 43 33 24 15 5 355 350 349 349 349 350 349 347 342 336 326 317 312 312 312 313 312 308 305 302 299 297 298 296
312 312 309 307 304 303 304 306 304 303 306 308 308 310 311 307 301 299 299 298 301 311 323 325 322 321 320 316 314 314 315 315 314 314 317 319 320 325 331 335 336 338 340 342 344 350 2 10 6 357 349 342 334 343 26 53 56 47 35 24 14 7 4 1 358 358 1 6 12 12 1 348 341 343 344 343 344 348 347 342 337 330 322 318 315
316 315 311 308 306 305 305 307 307 308 313 317 315 310 307 303 299 300 304 306 306 316 332 338 332 330 330 327 322 318 317 317 317 321 327 331 333 338 344 349 351 351 352 352 351 355 4 12 11 7 7 10 7 9 38 59 65 59 48 38 30 27 25 22 18 15 16 21 27 29 30 37 38 30 27 30 38 41 40 38 38 39 36 29 19